RH
53 53 54 55 55 54 53 48 41 36 36 40 42 41 38 37 40 46 54 64 72 78 84 89 93 94 97 100 100 100 100 100 100 100 100 100 100 100 99 95 90 83 75 71 67 64 63 63 61 60 58 53 46 41 38 34 31 29 25 22 19 17 16
57 58 59 59 59 59 56 51 42 35 32 32 33 36 39 47 56 63 69 76 81 86 91 95 98 100 100 100 100 100 100 100 100 100 100 100 100 100 99 97 92 85 77 72 69 68 65 64 63 61 56 50 43 39 38 35 31 28 24 20 18 16 15
62 64 64 64 64 64 61 54 45 37 34 35 39 45 53 61 68 72 76 82 88 94 98 98 100 101 100 100 100 100 100 100 100 100 100 100 100 100 99 99 95 87 79 74 72 70 67 66 64 59 52 46 41 38 37 33 29 25 22 20 18 17 16
67 68 68 70 71 71 69 64 55 47 45 47 52 59 66 72 76 80 86 92 97 99 99 99 100 101 100 100 100 99 100 100 100 100 100 100 100 100 100 99 95 87 81 77 74 71 69 67 62 55 48 44 41 38 35 31 26 24 22 20 20 19 20
70 72 74 76 78 80 80 76 68 62 61 62 66 72 78 82 86 90 95 99 100 100 99 99 100 100 100 100 100 100 100 100 100 100 100 100 100 100 100 99 94 87 83 80 76 73 70 65 58 51 46 44 42 39 35 30 26 25 24 22 22 23 25
75 77 81 84 87 88 87 83 78 75 76 77 81 85 88 92 95 98 100 101 101 100 100 100 99 100 100 100 100 100 100 100 100 100 100 100 100 100 100 97 92 87 85 82 77 72 66 60 53 48 46 45 43 39 33 30 27 25 26 26 25 26 30
81 85 89 91 92 92 89 87 85 85 87 89 91 94 97 99 100 100 100 100 100 100 100 100 100 100 100 100 100 100 100 100 100 100 101 100 100 101 99 95 92 89 86 81 74 68 61 55 50 47 46 45 45 40 34 33 31 26 27 31 31 31 36
89 93 95 96 96 95 94 94 93 94 96 97 99 100 100 100 100 100 100 100 100 100 100 100 100 100 100 100 100 100 100 100 100 100 100 100 100 100 97 94 93 90 83 76 69 62 56 52 50 48 46 46 46 42 39 41 38 29 29 36 37 36 41
97 98 98 98 99 99 99 100 99 99 100 100 100 100 100 100 100 100 100 100 100 100 100 100 100 100 100 100 100 100 100 100 100 100 100 100 100 98 96 96 93 86 77 68 62 57 54 52 51 49 47 46 46 47 47 47 44 36 35 42 41 38 43
100 100 100 100 100 100 101 101 100 100 100 100 100 100 100 100 100 100 100 100 100 100 100 100 100 100 100 100 100 100 100 100 100 100 100 101 99 98 98 95 88 78 69 63 58 55 54 54 51 49 50 48 48 53 53 51 50 46 44 46 43 39 44
100 100 100 100 100 100 100 100 100 100 100 100 100 100 100 100 100 100 100 100 100 100 100 100 100 100 100 100 100 100 100 100 100 100 101 99 98 99 97 90 80 71 64 59 56 55 55 55 51 50 53 53 53 56 57 55 54 51 48 48 46 44 46
100 100 100 100 100 100 100 100 100 100 100 100 100 100 100 100 100 100 100 100 100 100 100 100 100 100 100 100 100 100 100 100 100 100 100 99 99 98 92 82 73 65 60 57 56 57 56 54 53 54 57 59 61 61 60 57 55 54 52 52 51 48 47
100 100 100 100 100 100 100 100 100 100 100 100 100 100 100 99 100 101 100 100 100 100 100 100 100 100 100 100 100 100 100 100 100 101 100 100 99 93 84 75 67 61 59 58 58 58 55 55 59 59 61 67 69 66 62 58 56 57 58 56 53 50 47
100 100 100 100 100 100 100 100 100 100 100 100 100 101 100 96 97 101 102 101 101 101 100 100 100 100 100 100 100 100 100 100 100 101 101 99 94 85 76 68 62 59 59 59 60 59 56 59 67 68 68 72 73 68 64 61 59 60 61 59 55 50 46
100 100 100 100 100 100 100 100 100 100 100 100 99 101 100 94 92 98 103 102 101 101 100 100 100 100 100 100 100 100 101 101 101 101 99 94 85 77 69 62 59 60 62 62 62 60 58 64 73 77 75 75 75 71 67 65 65 65 65 61 54 49 44
101 100 100 100 100 100 100 100 100 100 100 100 100 100 101 96 91 93 98 100 101 102 101 100 100 100 100 100 100 101 101 102 103 99 93 85 76 69 63 60 60 62 63 64 65 66 69 74 79 80 77 76 76 72 68 70 71 68 66 60 54 48 42
100 100 100 100 100 100 100 100 100 100 100 100 100 100 100 98 94 92 94 96 100 101 101 101 101 100 100 101 101 102 102 102 100 92 83 76 69 64 61 60 62 64 64 66 71 77 85 88 86 84 81 80 78 72 71 72 67 62 63 61 55 47 40
100 100 100 100 100 100 100 100 100 100 100 100 100 100 100 100 98 96 95 96 99 101 101 101 101 101 101 102 102 102 102 98 88 79 73 68 64 62 61 61 63 65 66 71 79 88 95 95 91 90 89 89 88 87 88 84 69 63 68 66 55 46 42
100 100 100 100 100 100 100 100 100 100 100 100 100 100 100 100 99 98 98 98 99 100 100 101 102 102 103 103 103 101 95 85 74 69 67 64 62 61 60 61 63 65 69 76 84 92 97 95 93 93 92 90 87 87 93 93 83 75 73 67 56 50 49
100 100 100 100 100 100 100 100 100 100 100 100 100 100 100 100 100 100 100 100 99 100 101 101 101 102 103 103 99 91 80 70 64 62 62 61 61 61 60 62 65 67 71 77 82 87 90 88 89 92 91 87 82 79 82 88 88 82 75 68 60 55 57
100 100 100 100 100 100 100 100 100 100 100 100 100 100 100 99 100 100 100 101 101 102 102 102 102 102 101 96 86 75 66 62 60 60 60 61 61 61 62 65 65 66 71 78 82 83 81 78 80 85 86 84 81 78 79 83 85 80 74 70 67 67 71
100 100 100 100 100 100 100 100 100 100 100 100 100 100 100 101 100 100 101 100 101 101 102 102 101 97 89 79 69 62 60 59 58 60 63 65 66 67 70 74 75 76 80 85 83 79 76 74 76 82 84 83 82 81 83 86 84 78 72 71 73 78 84
101 100 100 100 100 100 100 100 100 100 100 100 100 99 99 100 99 100 101 100 99 98 98 95 90 82 72 65 60 59 57 57 58 61 65 68 71 74 80 88 94 94 92 89 87 85 84 82 82 84 85 84 84 87 92 95 91 81 74 73 77 82 88
102 101 101 102 102 100 100 100 100 100 100 100 101 101 101 102 101 101 101 98 93 89 85 81 75 68 63 60 58 57 57 57 59 61 64 68 72 78 83 87 91 94 95 96 97 97 93 88 87 88 85 82 86 94 101 104 97 82 72 71 77 84 87
102 101 101 102 101 100 101 101 100 100 100 99 99 98 96 95 93 90 88 84 79 75 71 69 66 63 60 59 58 57 58 59 61 62 64 67 72 78 80 82 87 95 101 104 103 101 98 94 90 89 86 83 87 95 100 103 97 85 77 79 86 93 93
95 95 94 93 93 93 94 93 91 91 91 89 87 85 82 79 76 74 72 69 68 65 63 62 60 59 58 58 58 59 60 60 62 64 65 68 72 77 82 87 95 102 103 103 102 102 102 99 95 91 88 85 84 86 89 92 90 83 79 83 93 101 100
79 79 77 76 75 75 75 75 74 73 72 72 71 70 69 67 65 64 63 62 62 61 60 59 58 58 60 60 61 63 65 66 68 71 74 77 81 86 92 97 102 104 103 102 102 101 101 100 100 98 93 86 82 82 82 82 81 77 72 73 83 91 92
59 60 59 56 55 56 55 56 59 60 59 59 59 60 62 63 64 65 65 66 66 66 66 67 67 67 69 71 73 74 76 78 80 82 86 90 94 97 101 103 102 102 102 102 101 101 101 100 100 101 99 95 89 83 78 76 76 73 67 67 72 75 73
45 46 45 42 41 41 39 39 44 47 48 47 49 51 52 55 60 64 67 70 73 74 74 73 73 73 74 78 81 82 83 85 88 90 93 97 100 102 104 104 102 101 102 101 101 101 101 100 101 102 103 101 94 84 77 75 73 70 68 68 70 67 62
33 33 31 29 29 29 28 28 30 33 35 38 40 41 41 41 45 48 49 51 57 60 59 56 56 56 57 61 66 68 70 73 77 81 84 87 90 94 98 100 101 102 103 103 103 103 103 103 105 105 104 100 93 85 81 79 76 74 74 73 71 67 64
27 26 26 26 26 26 27 27 27 28 30 33 35 37 38 38 38 39 41 42 44 44 41 41 42 43 44 49 53 54 56 58 61 64 66 69 73 78 82 86 88 91 95 100 103 105 105 104 104 105 105 102 97 91 87 84 80 78 75 73 74 72 69
27 27 29 29 30 30 30 31 32 32 33 35 37 38 39 40 42 46 51 56 57 53 47 44 45 45 46 49 52 53 57 61 64 66 66 66 67 67 70 73 75 80 89 96 99 101 102 102 102 103 103 104 104 101 97 92 87 83 80 78 79 77 72
29 30 31 32 33 34 34 34 35 36 38 40 41 43 45 47 49 52 57 63 68 70 70 71 71 70 70 70 69 67 68 70 73 76 78 78 76 73 71 71 75 81 88 92 93 95 96 98 101 103 102 104 105 104 103 101 97 93 91 88 86 84 83
34 34 34 35 37 39 40 41 42 44 47 50 54 58 60 58 55 55 60 68 74 78 82 88 91 93 95 97 95 92 90 87 85 84 85 85 85 85 83 83 84 87 88 88 89 93 94 96 99 102 103 104 105 104 104 104 103 101 99 97 96 95 96
34 37 38 38 38 37 37 37 38 40 44 48 53 59 60 56 55 58 65 75 84 89 91 94 97 100 103 104 103 101 101 100 97 95 93 90 89 88 88 88 90 91 92 93 95 96 98 100 101 103 105 106 107 107 105 103 102 102 100 100 101 101 102
30 32 34 35 36 38 40 43 47 50 53 56 60 62 62 63 67 71 74 80 89 98 101 101 101 101 102 102 102 102 101 101 101 100 100 99 97 95 92 90 89 89 90 93 95 96 98 101 102 104 106 107 106 107 105 102 102 102 100 101 105 106 105
Wind_Speed
54 54 55 55 55 54 53 52 51 50 49 50 50 51 50 49 49 49 50 51 53 54 55 56 56 56 57 57 58 58 58 58 58 58 58 57 56 54 53 52 53 54 54 54 55 53 52 51 51 51 50 49 49 49 50 51 53 54 54 55 56 57 57
53 53 54 54 55 54 54 53 52 51 50 50 49 48 48 47 48 50 51 53 54 55 55 55 54 54 54 55 55 55 55 55 56 56 56 55 53 52 51 51 52 53 54 54 53 51 51 50 50 50 49 49 50 50 51 51 52 53 54 55 56 57 57
51 51 52 53 53 54 53 53 52 51 51 50 49 48 48 49 50 52 53 55 55 54 54 53 52 51 52 53 53 52 52 53 54 54 54 52 51 50 51 51 51 52 53 52 51 51 50 49 49 50 50 50 51 51 52 52 53 54 54 54 55 56 55
50 50 51 52 52 52 52 52 52 51 51 51 51 50 51 51 52 54 55 55 54 53 53 52 51 51 52 52 51 50 51 52 52 52 51 51 50 51 51 50 50 51 51 51 50 50 49 49 49 49 50 50 51 52 53 53 53 54 54 54 54 53 52
49 49 50 51 51 51 51 51 51 51 52 52 52 52 52 53 54 54 54 53 53 52 51 50 50 51 52 51 49 49 49 50 50 50 50 51 51 51 50 50 49 49 49 50 50 49 49 49 49 49 50 51 51 52 52 53 53 53 53 53 52 51 50
49 49 50 50 50 51 51 50 50 51 51 51 51 52 53 53 53 52 52 51 50 49 49 50 51 51 51 49 48 47 47 47 48 50 51 51 51 50 49 49 49 48 48 49 49 49 49 50 49 49 50 51 51 52 52 53 53 52 51 51 50 50 48
49 49 49 49 50 50 49 49 49 50 50 51 51 52 52 51 50 49 49 48 48 49 50 50 49 48 46 45 44 44 45 47 49 50 51 52 51 50 49 48 47 47 48 48 49 49 50 50 50 50 51 51 51 52 52 52 52 52 51 49 49 48 47
48 48 48 48 48 48 48 48 49 50 50 50 50 50 49 48 47 46 46 46 47 47 47 45 43 42 42 42 43 44 45 48 50 51 52 51 50 49 48 47 47 46 47 48 48 49 49 49 50 50 50 50 51 51 51 49 50 52 51 48 47 47 46
48 48 47 47 47 47 47 48 49 49 49 48 47 46 45 44 44 44 44 44 44 44 43 42 42 42 43 44 44 45 47 49 50 51 51 50 49 48 47 46 46 46 46 47 48 48 49 49 50 50 50 50 50 50 49 47 48 50 49 48 48 47 46
47 47 46 46 47 47 47 47 47 46 45 45 44 43 42 42 43 44 44 44 44 44 44 44 44 44 45 45 46 47 49 50 50 50 50 49 48 47 46 46 46 46 46 46 47 48 48 49 50 50 49 49 49 48 47 46 46 47 48 48 49 48 46
46 46 46 46 46 46 46 45 45 44 43 42 42 41 42 43 44 45 45 46 46 46 46 45 46 46 46 46 48 49 49 50 50 50 50 49 47 46 45 45 46 46 46 46 47 48 48 50 50 49 49 49 48 47 45 45 45 46 47 47 49 48 46
46 46 45 46 45 45 45 45 44 43 42 41 41 42 43 44 45 46 46 47 47 47 47 47 47 47 47 48 48 49 49 49 49 50 49 48 47 46 46 45 45 46 46 46 47 48 49 50 49 49 49 49 47 45 45 45 45 46 46 46 47 48 46
45 45 45 46 45 45 45 45 44 43 43 43 43 44 45 47 47 47 47 47 47 47 47 47 47 48 48 48 48 48 48 49 49 49 47 46 46 46 46 46 45 46 46 46 47 48 49 49 48 49 49 47 45 45 45 45 45 45 45 46 47 47 45
45 45 45 45 45 45 45 45 45 44 44 44 44 44 45 47 46 45 46 46 46 46 47 47 47 47 47 47 47 47 48 48 47 46 45 45 46 46 46 46 46 46 46 46 47 48 49 48 48 49 48 46 45 45 45 44 45 45 45 46 46 45 45
44 45 45 45 45 45 45 45 44 43 42 42 42 41 43 45 46 44 44 45 46 46 46 46 46 47 47 47 48 48 48 46 45 44 44 45 46 46 46 46 46 45 45 46 47 48 48 48 48 48 47 46 45 45 44 44 44 45 46 46 46 45 45
44 44 44 44 44 44 44 43 42 41 41 40 40 39 40 44 46 45 44 45 45 45 45 45 46 47 47 48 48 47 46 44 43 44 44 45 45 45 46 47 46 45 44 45 46 47 48 49 49 48 48 46 45 44 43 43 45 45 46 46 46 46 44
42 43 43 43 43 43 42 42 41 40 40 40 39 38 39 42 45 45 46 45 45 45 46 46 47 48 48 49 47 45 43 42 42 44 44 45 46 46 46 47 45 44 44 44 45 45 47 48 48 48 48 47 46 44 43 44 46 46 44 45 46 45 42
41 41 41 41 41 41 41 40 39 39 39 38 37 36 38 41 43 45 46 47 47 47 48 48 49 49 48 47 45 42 41 41 42 44 45 46 45 46 47 46 44 43 43 44 44 45 46 47 47 46 45 44 43 43 43 46 48 46 45 46 45 43 41
40 40 40 39 39 39 39 38 37 37 37 36 35 35 38 40 43 45 47 48 49 49 50 50 49 48 47 45 43 41 40 40 41 43 45 46 46 47 47 45 42 43 43 44 45 45 45 45 45 45 45 44 43 43 44 46 48 47 47 47 46 43 43
38 38 38 38 37 37 36 35 35 34 34 34 35 36 38 41 44 46 47 48 49 50 50 50 48 47 45 44 43 41 40 39 40 42 44 45 47 48 46 43 43 44 44 45 46 45 44 44 44 44 44 45 44 44 44 45 46 47 48 48 47 44 43
37 37 37 36 35 35 34 33 33 32 33 34 35 36 39 42 44 45 46 47 48 48 48 48 47 45 44 43 42 42 41 41 40 41 43 45 47 47 45 44 46 46 46 46 46 45 44 43 43 42 42 42 42 43 43 43 43 44 45 46 47 45 43
36 35 35 34 34 33 32 31 31 31 32 33 34 36 38 40 42 43 44 46 46 46 46 46 45 44 43 42 42 41 41 41 41 41 43 45 46 45 43 43 45 47 47 48 47 46 44 43 41 39 37 37 39 40 41 41 40 39 40 41 42 43 42
34 34 34 33 32 31 31 30 31 31 31 32 33 35 36 38 40 41 43 45 46 46 46 46 45 44 43 42 43 43 42 42 41 41 42 43 44 42 41 41 44 46 48 49 49 47 45 43 41 39 36 35 36 37 38 39 38 36 37 39 40 41 41
33 33 33 32 32 31 31 31 31 31 31 32 32 34 36 38 39 41 43 45 46 47 47 47 46 44 43 43 44 43 43 42 42 42 43 43 42 42 42 44 46 48 49 50 49 48 46 43 41 39 37 35 35 36 38 39 38 37 38 39 40 40 40
33 33 33 32 32 31 31 32 32 32 32 32 33 35 37 38 40 42 43 45 46 47 48 48 46 45 44 44 44 43 43 42 43 43 43 42 42 43 45 46 46 46 47 48 49 48 47 44 41 39 38 36 36 37 39 39 39 38 39 40 40 40 40
32 33 33 33 33 33 32 32 33 32 33 34 35 37 37 39 41 42 43 44 45 45 46 46 46 46 46 45 45 45 44 44 44 43 44 44 43 44 45 45 45 45 45 46 47 47 47 46 43 41 40 40 40 40 40 41 41 40 39 40 40 41 41
32 32 33 33 33 33 33 33 33 33 34 35 37 37 37 38 39 40 42 43 44 44 44 45 45 46 47 47 47 47 47 46 45 44 44 44 43 43 44 44 44 44 45 45 45 45 46 46 45 44 43 42 42 42 41 41 42 42 40 40 40 42 41
32 32 33 34 35 35 35 34 34 34 35 37 37 37 37 38 38 38 40 41 42 43 44 45 46 46 47 47 48 47 47 47 46 45 44 43 43 43 43 43 44 44 45 45 45 45 46 46 45 45 44 43 43 43 42 41 42 43 42 40 41 41 39
33 33 34 35 36 36 37 36 35 35 36 37 38 37 38 38 37 37 39 39 41 43 44 46 46 46 46 47 47 47 47 46 46 45 44 43 42 42 42 43 43 44 45 44 44 44 44 44 44 44 43 42 43 42 41 42 42 43 42 42 42 41 38
34 35 36 37 38 38 39 39 38 38 37 37 37 38 39 39 39 39 39 39 40 41 43 44 45 45 45 45 45 45 45 44 44 43 43 42 42 42 42 42 43 43 43 43 42 42 41 41 41 42 41 41 41 40 40 41 41 42 42 43 43 42 40
34 36 37 39 40 41 41 42 41 41 39 38 37 38 39 40 40 40 40 39 40 41 42 42 43 43 44 43 43 44 43 43 43 43 43 42 42 42 42 42 42 41 41 41 41 40 40 40 40 41 41 41 40 40 39 40 41 41 42 43 42 42 41
35 36 37 38 40 41 42 42 42 42 41 39 38 38 39 39 39 39 39 39 41 43 44 44 43 44 44 43 43 43 42 42 42 42 42 41 41 41 41 41 40 39 39 40 41 40 40 40 40 40 41 41 41 41 41 41 41 42 42 43 43 42 41
36 37 38 38 39 40 41 42 41 41 41 41 40 40 40 40 40 40 39 39 40 42 43 44 44 44 44 44 44 44 43 42 42 42 41 41 41 41 40 40 39 39 40 40 41 40 40 40 39 39 40 40 40 41 41 42 42 42 42 43 43 42 41
34 36 37 38 38 39 40 41 41 41 40 41 41 41 42 43 43 42 41 40 40 41 42 42 43 44 44 44 45 44 44 43 43 42 42 41 41 40 40 39 39 40 41 40 40 40 40 39 38 38 38 38 39 40 41 41 42 42 42 42 42 42 41
33 33 35 36 38 39 40 40 41 41 41 41 41 42 44 46 46 45 44 42 42 43 43 43 44 44 45 45 46 46 46 45 44 44 43 43 42 41 40 39 39 40 39 39 39 39 38 38 37 36 36 36 37 38 39 40 39 39 40 40 41 41 41
36 35 35 36 38 40 41 41 41 42 42 42 43 44 46 47 47 47 47 46 45 44 45 45 46 46 47 47 48 48 48 48 47 46 45 44 43 42 42 41 41 40 39 39 38 38 37 37 36 35 35 35 35 36 37 37 36 37 37 37 38 40 40
Wind_Direction
281 283 283 283 282 281 280 279 278 277 274 272 271 270 270 269 269 270 272 274 276 278 278 278 277 276 275 274 272 271 270 271 271 271 271 271 271 272 275 279 282 284 286 287 287 287 285 284 283 282 283 283 284 284 285 286 288 289 290 290 290 290 290
280 281 282 282 281 281 279 279 278 278 276 274 273 272 271 270 272 274 276 278 279 280 279 278 277 276 275 273 272 271 269 269 270 269 269 269 269 272 276 280 283 285 286 286 285 284 283 282 282 283 283 284 284 285 286 287 288 289 290 291 291 290 290
278 279 280 280 280 279 279 278 278 278 277 276 274 273 273 274 276 278 279 281 281 281 279 278 277 276 274 272 271 269 268 268 267 267 267 267 268 273 277 280 283 284 284 284 283 282 282 282 282 282 283 284 285 286 287 288 289 290 291 291 291 290 289
278 278 279 279 280 279 279 278 277 276 275 275 274 274 275 277 278 280 281 282 281 280 278 277 276 274 272 271 269 267 266 265 265 266 266 266 269 274 278 280 282 282 282 282 282 282 282 282 282 283 284 286 286 288 289 290 291 292 292 292 291 289 288
278 278 279 279 280 280 279 277 275 274 273 274 274 275 277 278 280 281 281 281 280 279 278 276 274 272 270 268 266 264 264 264 264 265 264 266 270 275 278 280 281 281 281 282 282 282 282 282 283 284 286 287 287 289 290 291 292 293 293 291 289 287 285
278 278 279 280 280 279 277 276 274 273 273 274 275 276 278 280 281 281 280 279 278 277 275 273 272 270 268 266 263 262 262 263 263 263 264 267 272 275 278 280 280 280 281 281 281 281 282 283 284 285 286 288 289 290 291 292 293 293 291 288 286 284 283
279 279 280 279 278 277 276 274 274 274 275 276 277 279 280 280 280 280 279 278 276 274 272 271 269 267 265 263 261 261 261 262 262 263 265 268 272 276 278 280 280 280 280 280 281 281 283 284 285 286 287 289 290 291 292 294 293 291 288 286 284 283 281
280 280 280 279 277 276 275 275 276 276 277 279 279 280 280 279 279 278 276 274 272 270 269 268 266 264 262 261 261 261 261 261 262 263 266 269 274 277 279 279 279 279 279 279 280 282 283 284 285 286 288 289 291 292 293 293 291 289 287 285 283 281 279
282 281 279 278 277 277 277 278 279 279 280 280 279 279 278 277 275 273 270 269 268 268 267 266 265 264 263 262 261 260 260 260 261 263 267 272 275 278 278 278 278 277 278 279 280 281 282 283 285 286 288 289 291 292 292 290 288 286 285 283 281 280 279
282 281 280 279 279 279 279 280 280 280 279 279 278 277 275 272 270 269 268 267 267 267 267 267 265 264 263 261 260 259 259 260 262 265 270 274 276 277 277 277 277 277 277 278 279 280 282 283 284 286 288 289 290 290 289 288 285 283 282 281 281 281 280
282 281 281 280 280 280 280 280 280 279 278 277 276 273 271 270 268 267 267 267 267 267 267 266 264 263 262 260 259 259 259 261 264 268 272 275 277 277 276 276 276 276 277 278 279 280 281 282 285 287 288 288 289 288 287 285 282 280 279 280 280 280 280
281 281 281 281 280 280 281 281 280 279 277 275 273 271 270 269 268 267 267 266 266 265 264 264 263 262 260 259 259 259 260 263 267 271 274 276 276 276 275 275 275 276 277 278 279 280 281 283 285 287 287 287 288 287 284 281 279 278 279 279 279 279 281
281 281 281 281 281 281 281 281 280 278 276 274 273 271 270 269 268 267 267 266 265 264 263 262 261 260 259 259 259 260 262 266 270 273 275 275 275 275 275 275 276 276 277 277 278 280 282 284 285 285 286 287 286 284 281 279 278 278 278 277 277 279 280
282 282 282 282 282 282 281 280 279 278 276 275 273 271 270 270 269 267 266 265 264 263 262 261 260 259 259 259 259 262 266 270 273 274 275 274 274 274 275 275 276 276 277 278 278 280 282 283 283 284 286 285 283 281 280 278 278 278 277 277 277 278 278
284 284 283 283 282 281 281 280 279 278 276 275 273 271 270 271 270 267 265 265 264 263 261 260 259 259 259 260 262 265 269 272 273 274 274 273 274 274 275 275 275 276 276 277 279 281 282 282 282 283 283 282 280 279 278 278 278 277 277 276 277 277 278
286 285 285 284 283 283 282 282 280 278 276 274 273 270 267 269 270 269 266 264 263 262 261 260 260 260 261 263 266 268 271 273 273 273 273 273 273 274 274 275 276 276 276 277 279 281 282 283 282 282 282 280 279 277 276 276 274 274 274 275 276 277 278
287 287 286 286 285 284 284 283 281 278 276 274 272 268 265 266 269 269 268 267 264 262 261 261 261 263 265 267 269 271 273 273 273 273 272 273 273 273 274 275 275 276 277 278 278 279 279 280 281 281 282 281 280 279 278 276 274 274 275 276 276 278 279
289 288 288 287 286 285 284 283 281 279 276 274 271 266 263 264 266 267 268 268 267 266 265 265 265 266 267 268 269 271 272 272 272 272 271 271 271 272 272 274 274 274 275 275 274 274 275 277 278 279 278 278 279 278 277 276 278 280 279 278 280 282 283
289 289 288 287 287 286 284 283 281 279 276 273 270 264 261 262 263 265 266 268 269 269 269 269 269 268 269 270 271 271 270 270 270 270 270 271 271 270 271 272 272 271 270 269 268 269 271 273 274 274 274 274 274 273 272 272 275 278 278 278 280 282 282
289 289 288 287 286 285 284 283 281 278 275 272 268 263 260 261 262 263 264 266 267 269 269 270 271 272 273 275 275 275 274 272 271 270 271 271 272 272 274 274 272 270 268 267 267 267 268 269 269 269 270 271 272 272 271 270 271 272 274 277 278 279 279
289 288 287 286 286 285 284 282 280 278 274 271 267 263 261 262 263 264 264 265 266 266 268 270 272 274 276 277 278 278 278 276 275 274 274 273 273 275 276 275 273 272 271 270 270 269 269 269 269 268 269 270 271 271 272 272 270 269 269 272 275 276 277
289 288 288 287 286 285 284 283 280 277 274 270 268 266 264 264 265 265 266 267 267 268 270 271 273 274 275 275 275 275 273 273 272 272 273 273 275 276 276 275 276 277 276 275 274 274 275 275 274 273 272 271 271 272 273 273 272 270 268 268 270 271 272
291 290 290 289 288 287 285 283 280 278 275 272 270 268 267 267 267 267 268 270 271 272 273 273 274 274 274 274 272 271 270 269 268 267 267 268 270 271 271 271 272 273 274 275 277 278 279 279 278 277 274 272 272 274 275 274 272 269 266 265 264 265 267
293 293 292 292 291 289 287 284 281 279 277 274 272 271 270 269 269 269 271 272 274 275 275 275 275 275 274 273 272 271 270 268 267 266 265 265 265 265 264 264 266 269 273 275 277 278 279 279 278 277 275 273 272 273 273 272 270 267 264 263 264 264 266
296 295 294 293 292 290 287 285 284 282 280 278 275 273 272 271 271 272 272 273 274 276 277 278 278 277 275 273 272 271 270 268 267 266 266 265 263 263 263 266 268 270 271 273 275 277 279 279 278 277 275 273 270 269 267 267 266 265 264 264 265 266 266
297 296 295 294 292 290 288 287 285 284 282 279 276 275 273 273 273 274 274 275 275 275 276 277 278 277 275 273 272 270 269 268 267 267 267 267 266 265 267 269 270 270 270 271 273 276 277 278 277 276 274 271 269 266 265 265 264 263 261 261 262 264 264
298 297 295 294 292 291 290 288 286 285 282 279 277 276 275 274 274 274 275 275 275 275 274 274 273 273 273 273 272 272 272 271 271 270 269 269 270 269 270 271 271 271 271 271 271 272 274 275 275 274 273 271 270 269 267 266 265 264 262 261 261 262 262
300 299 297 295 294 293 291 290 288 286 284 282 281 280 279 277 276 274 274 273 273 273 272 271 271 270 271 271 272 273 273 273 274 273 272 272 271 271 271 271 271 270 270 269 270 270 271 271 272 272 271 270 269 269 268 267 266 266 265 264 264 264 263
302 301 298 297 296 295 294 293 291 289 288 287 287 285 283 281 278 275 273 272 271 271 271 270 271 271 271 272 272 273 274 274 275 275 274 273 271 269 269 268 268 268 268 268 268 267 268 268 268 268 268 267 267 267 267 266 266 266 267 268 268 268 267
304 303 301 300 299 298 296 295 294 292 291 290 289 288 286 284 281 278 276 274 272 271 271 272 272 273 273 273 272 273 273 273 273 273 272 271 270 268 267 265 265 265 265 265 265 265 265 265 265 265 266 265 265 264 264 263 264 265 266 268 269 270 270
304 303 302 301 300 299 298 296 295 294 292 291 290 288 287 286 285 285 284 282 278 275 274 274 274 274 274 274 273 273 273 273 272 271 270 270 268 266 266 265 264 264 264 265 264 264 262 262 262 263 263 263 263 263 262 262 262 263 264 266 268 269 270
303 302 300 299 299 298 297 296 295 295 294 294 292 289 287 286 286 285 284 283 282 280 280 279 277 276 275 274 273 273 273 272 272 271 270 269 268 266 265 265 264 264 264 263 263 262 261 260 260 260 260 261 262 262 262 262 263 264 265 266 268 269 270
303 302 300 299 298 297 296 295 296 296 296 295 293 291 289 286 284 282 280 279 279 279 280 281 281 280 278 277 275 274 272 270 270 269 268 267 266 265 264 264 264 263 262 261 261 261 261 260 259 259 259 259 259 260 261 262 263 264 266 267 268 270 271
302 301 300 299 298 296 295 295 295 295 294 293 292 291 289 286 284 283 282 279 277 276 276 276 276 276 276 276 275 274 273 271 270 269 268 267 266 265 264 263 262 261 260 260 260 260 260 260 259 258 257 257 257 258 259 260 262 263 265 267 269 271 272
303 302 300 299 297 296 295 294 294 293 292 291 290 288 286 285 285 285 282 280 277 276 274 273 272 271 271 271 271 271 271 271 270 269 268 267 267 265 264 263 262 261 261 261 260 260 260 260 259 258 257 256 256 256 257 259 261 262 264 266 268 269 270
306 304 302 300 298 297 296 296 295 294 292 291 289 287 286 286 285 284 282 280 277 275 273 272 270 270 269 269 269 269 269 269 269 268 268 267 266 265 264 263 263 262 262 261 261 260 260 260 259 259 258 258 257 257 258 259 260 261 262 264 265 266 267